TimeCST,TemperatureF,Dew PointF,Humidity,Sea Level PressureIn,VisibilityMPH,Wind Direction,Wind SpeedMPH,Gust SpeedMPH,PrecipitationIn,Events,Conditions,WindDirDegrees,DateUTC
12:06 AM,32.0,30.2,93,30.19,1.8,Calm,Calm,-,N/A,,Clear,0,2012-11-08 06:06:00
12:24 AM,30.2,28.4,93,30.19,3.0,Calm,Calm,-,N/A,,Clear,0,2012-11-08 06:24:00
12:54 AM,30.9,28.0,89,30.21,5.0,Calm,Calm,-,N/A,,Clear,0,2012-11-08 06:54:00
1:19 AM,30.2,26.6,86,30.19,1.8,Calm,Calm,-,N/A,,Clear,0,2012-11-08 07:19:00
1:49 AM,28.4,26.6,93,30.20,3.0,Calm,Calm,-,N/A,,Clear,0,2012-11-08 07:49:00
1:54 AM,28.9,27.0,92,30.22,3.0,Calm,Calm,-,N/A,,Clear,0,2012-11-08 07:54:00
2:29 AM,28.4,26.6,93,30.20,2.0,Calm,Calm,-,N/A,,Clear,0,2012-11-08 08:29:00
2:42 AM,28.4,26.6,93,30.20,5.0,Calm,Calm,-,N/A,,Clear,0,2012-11-08 08:42:00
2:54 AM,28.0,26.1,92,30.22,3.0,Calm,Calm,-,N/A,,Clear,0,2012-11-08 08:54:00
3:22 AM,28.4,26.6,93,30.20,2.0,Calm,Calm,-,N/A,,Partly Cloudy,0,2012-11-08 09:22:00
3:26 AM,28.4,26.6,93,30.20,1.0,West,3.5,-,N/A,,Mist,260,2012-11-08 09:26:00
3:34 AM,26.6,24.8,93,30.20,2.0,Calm,Calm,-,N/A,,Partly Cloudy,0,2012-11-08 09:34:00
3:42 AM,26.6,24.8,93,30.20,5.0,Calm,Calm,-,N/A,,Partly Cloudy,0,2012-11-08 09:42:00
3:54 AM,28.0,26.1,92,30.22,5.0,Calm,Calm,-,N/A,,Clear,0,2012-11-08 09:54:00
4:54 AM,27.0,25.0,92,30.23,5.0,Calm,Calm,-,N/A,,Clear,0,2012-11-08 10:54:00
5:27 AM,26.6,24.8,93,30.20,2.0,Calm,Calm,-,N/A,,Clear,0,2012-11-08 11:27:00
5:37 AM,26.6,24.8,93,30.20,4.0,Calm,Calm,-,N/A,,Clear,0,2012-11-08 11:37:00
5:54 AM,27.0,24.1,89,30.22,5.0,Calm,Calm,-,N/A,,Clear,0,2012-11-08 11:54:00
6:04 AM,26.6,24.8,93,30.20,1.8,Calm,Calm,-,N/A,,Clear,0,2012-11-08 12:04:00
6:16 AM,26.6,24.8,93,30.20,2.0,Calm,Calm,-,N/A,,Clear,0,2012-11-08 12:16:00
6:54 AM,27.0,25.0,92,30.23,2.0,Calm,Calm,-,N/A,,Clear,0,2012-11-08 12:54:00
7:05 AM,26.6,24.8,93,30.22,5.0,Calm,Calm,-,N/A,,Clear,0,2012-11-08 13:05:00
7:54 AM,30.9,28.9,92,30.25,7.0,Calm,Calm,-,N/A,,Clear,0,2012-11-08 13:54:00
8:54 AM,41.0,36.0,82,30.24,9.0,Calm,Calm,-,N/A,,Clear,0,2012-11-08 14:54:00
9:54 AM,48.0,36.0,63,30.23,10.0,South,5.8,-,N/A,,Clear,180,2012-11-08 15:54:00
10:54 AM,51.1,36.0,56,30.21,10.0,South,6.9,-,N/A,,Clear,180,2012-11-08 16:54:00
11:54 AM,53.1,37.0,55,30.19,10.0,SE,5.8,-,N/A,,Clear,140,2012-11-08 17:54:00
12:54 PM,55.9,36.0,47,30.15,10.0,SSE,4.6,-,N/A,,Clear,150,2012-11-08 18:54:00
1:54 PM,57.0,37.0,47,30.12,10.0,South,6.9,-,N/A,,Clear,180,2012-11-08 19:54:00
2:54 PM,59.0,37.0,44,30.10,10.0,South,9.2,-,N/A,,Clear,170,2012-11-08 20:54:00
3:54 PM,59.0,36.0,42,30.10,10.0,South,4.6,-,N/A,,Clear,180,2012-11-08 21:54:00
4:54 PM,55.9,36.0,47,30.10,10.0,ESE,3.5,-,N/A,,Clear,120,2012-11-08 22:54:00
5:54 PM,53.1,37.0,55,30.10,10.0,Calm,Calm,-,N/A,,Clear,0,2012-11-08 23:54:00
6:54 PM,51.1,36.0,56,30.09,10.0,SE,4.6,-,N/A,,Clear,130,2012-11-09 00:54:00
7:54 PM,48.9,36.0,61,30.09,10.0,Calm,Calm,-,N/A,,Clear,0,2012-11-09 01:54:00
8:54 PM,50.0,36.0,59,30.08,10.0,SSE,4.6,-,N/A,,Clear,150,2012-11-09 02:54:00
9:54 PM,50.0,37.0,61,30.08,10.0,South,4.6,-,N/A,,Clear,190,2012-11-09 03:54:00
10:54 PM,48.9,37.0,64,30.06,10.0,Variable,3.5,-,N/A,,Clear,0,2012-11-09 04:54:00
11:54 PM,48.0,37.0,66,30.07,10.0,SSW,3.5,-,N/A,,Clear,210,2012-11-09 05:54:00